Weather History for Sierra Vista, AZ

Change the Weather History Date:

Tuesday, March 19, 2013

  Actual Average Record
Temperature  
Mean Temperature 62 °F -  
Max Temperature 73 °F 70 °F 82 °F (2004)
Min Temperature 50 °F 46 °F 28 °F (2012)
Degree Days  
Heating Degree Days 4    
Growing Degree Days 12 (Base 50)    
Moisture  
Dew Point 23 °F    
Average Humidity 25    
Maximum Humidity 40    
Minimum Humidity 13    
Precipitation  
Precipitation 0.00 in - - ()
Sea Level Pressure  
Sea Level Pressure 29.96 in    
Wind  
Wind Speed 9 mph (West)    
Max Wind Speed 17 mph    
Max Gust Speed 25 mph    
Visibility 10 miles    
Events      
Averages and records for this station are not official NWS values.
T = Trace of Precipitation, MM = Missing Value Source: NWS Daily Summary

Daily Weather History Graph

Daily Weather History Graph

Search for Another Location

Airport:

Trip Planner

Search our weather history database for the weather conditions in past years. The results will help you decide how hot, cold, wet, or windy it might be!

Date:

Astronomy

Mar. 19, 2013 Rise Set
Actual Time 6:26 AM MST 6:32 PM MST
Civil Twilight 6:01 AM MST 6:56 PM MST
Nautical Twilight 5:33 AM MST 7:25 PM MST
Astronomical Twilight 5:04 AM MST 7:53 PM MST
Moon 11:39 AM MST (3/19) 1:01 AM MST (3/19)
Length of Visible Light 12h 54m
Length of Day
12h 06m
Waxing Crescent, 51% of the Moon is Illuminated
Mar 19
Waxing Crescent
Mar 27
Full
Apr 2
Last Quarter
Apr 10
New
Apr 18
First Quarter

Hourly Weather History & Observations

Time (MST) Temp. Dew Point Humidity Pressure Visibility Wind Dir Wind Speed Gust Speed Precip Events Conditions
12:55 AM 59.0 °F 23.0 °F 25% 29.93 in 10.0 mi SW 8.1 mph - N/A   Mostly Cloudy
1:55 AM 57.2 °F 26.6 °F 31% 29.92 in 10.0 mi WSW 8.1 mph - N/A   Mostly Cloudy
2:55 AM 59.0 °F 26.6 °F 29% 29.91 in 10.0 mi West 6.9 mph - N/A   Mostly Cloudy
3:55 AM 53.6 °F 28.4 °F 38% 29.91 in 10.0 mi West 8.1 mph - N/A   Mostly Cloudy
4:55 AM 53.6 °F 24.8 °F 33% 29.91 in 10.0 mi West 8.1 mph - N/A   Scattered Clouds
5:55 AM 51.8 °F 24.8 °F 35% 29.94 in 10.0 mi West 8.1 mph - N/A   Mostly Cloudy
6:55 AM 50.0 °F 26.6 °F 40% 29.96 in 10.0 mi Calm Calm - N/A   Mostly Cloudy
7:55 AM 55.4 °F 26.6 °F 33% 29.98 in 10.0 mi Calm Calm - N/A   Mostly Cloudy
8:55 AM 60.8 °F 26.6 °F 27% 29.96 in 10.0 mi Calm Calm - N/A   Mostly Cloudy
9:55 AM 66.2 °F 15.8 °F 14% 29.96 in 10.0 mi West 13.8 mph 23.0 mph N/A   Mostly Cloudy
10:55 AM 66.2 °F 19.4 °F 17% 29.99 in 10.0 mi West 17.3 mph - N/A   Mostly Cloudy
11:55 AM 69.8 °F 17.6 °F 14% 29.97 in 10.0 mi West 12.7 mph - N/A   Overcast
12:55 PM 71.6 °F 17.6 °F 13% 29.95 in 10.0 mi West 16.1 mph 21.9 mph N/A   Mostly Cloudy
1:55 PM 71.6 °F 21.2 °F 15% 29.93 in 10.0 mi NW 13.8 mph 23.0 mph N/A   Mostly Cloudy
2:55 PM 71.6 °F 21.2 °F 15% 29.91 in 10.0 mi WNW 13.8 mph 25.3 mph N/A   Mostly Cloudy
3:55 PM 73.4 °F 21.2 °F 14% 29.92 in 10.0 mi WNW 17.3 mph 25.3 mph N/A   Mostly Cloudy
4:55 PM 71.6 °F 21.2 °F 15% 29.94 in 10.0 mi WNW 16.1 mph 25.3 mph N/A   Mostly Cloudy
5:55 PM 69.8 °F 23.0 °F 17% 29.96 in 10.0 mi NW 12.7 mph - N/A   Mostly Cloudy
6:55 PM 64.4 °F 23.0 °F 21% 29.99 in 10.0 mi NW 10.4 mph - N/A   Mostly Cloudy
7:55 PM 60.8 °F 24.8 °F 25% 30.02 in 10.0 mi West 8.1 mph - N/A   Mostly Cloudy
8:55 PM 57.2 °F 24.8 °F 29% 30.03 in 10.0 mi WSW 9.2 mph - N/A   Mostly Cloudy
9:55 PM 57.2 °F 24.8 °F 29% 30.02 in 10.0 mi WSW 9.2 mph - N/A   Mostly Cloudy
10:55 PM 55.4 °F 26.6 °F 33% 30.04 in 10.0 mi SW 3.5 mph - N/A   Mostly Cloudy
11:55 PM 55.4 °F 26.6 °F 33% 30.04 in 10.0 mi South 5.8 mph - N/A   Mostly Cloudy